Hourly Weather Bolshie Misniki

Today, 20 June, Sunday

Time Temperature Precipitation Wind Pressure Humidity
00:00 +19°C° 0 mm 2 mps 748 mmHg 91%
01:00 +18°C° 0 mm 2 mps 748 mmHg 92%
02:00 +18°C° 0 mm 2 mps 748 mmHg 93%
03:00 +18°C° 0 mm 2 mps 748 mmHg 93%
04:00 +19°C° 0 mm 2 mps 748 mmHg 92%
05:00 +19°C° 0 mm 2 mps 748 mmHg 91%
06:00 +21°C° 0 mm 2 mps 748 mmHg 86%
07:00 +24°C° 0 mm 2 mps 748 mmHg 80%
08:00 +25°C° 0 mm 2 mps 748 mmHg 74%
09:00 +27°C° 0 mm 2 mps 748 mmHg 69%
10:00 +28°C° 0 mm 3 mps 748 mmHg 65%
11:00 +29°C° 0 mm 3 mps 748 mmHg 61%
12:00 +29°C° 0 mm 3 mps 748 mmHg 58%
13:00 +30°C° 0 mm 3 mps 748 mmHg 56%
14:00 +30°C° 0 mm 3 mps 748 mmHg 54%
15:00 +30°C° 0 mm 3 mps 747 mmHg 57%
16:00 +29°C° 0 mm 3 mps 747 mmHg 61%
17:00 +29°C° 0 mm 3 mps 747 mmHg 64%
18:00 +27°C° 0 mm 2 mps 747 mmHg 71%
19:00 +26°C° 0 mm 2 mps 747 mmHg 78%
20:00 +24°C° 0 mm 2 mps 747 mmHg 85%
21:00 +23°C° 0 mm 2 mps 747 mmHg 87%
22:00 +21°C° 0 mm 2 mps 747 mmHg 89%
23:00 +20°C° 0 mm 2 mps 746 mmHg 91%

Tomorrow, 21 June, Monday

Time Temperature Precipitation Wind Pressure Humidity
00:00 +20°C° 0 mm 2 mps 746 mmHg 91%
01:00 +19°C° 0 mm 2 mps 746 mmHg 90%
02:00 +19°C° 0 mm 2 mps 747 mmHg 90%
03:00 +19°C° 0 mm 2 mps 747 mmHg 89%
04:00 +19°C° 0 mm 2 mps 747 mmHg 88%
05:00 +19°C° 0 mm 2 mps 747 mmHg 87%
06:00 +21°C° 0 mm 2 mps 747 mmHg 81%
07:00 +22°C° 0 mm 3 mps 747 mmHg 75%
08:00 +25°C° 0 mm 3 mps 747 mmHg 69%
09:00 +26°C° 0 mm 4 mps 747 mmHg 64%
10:00 +27°C° 0 mm 4 mps 746 mmHg 59%
11:00 +28°C° 0 mm 5 mps 746 mmHg 54%
12:00 +28°C° 0 mm 4 mps 746 mmHg 52%
13:00 +29°C° 0 mm 4 mps 746 mmHg 51%
14:00 +29°C° 0 mm 4 mps 746 mmHg 49%
15:00 +29°C° 0 mm 4 mps 746 mmHg 53%
16:00 +29°C° 0 mm 4 mps 745 mmHg 57%
17:00 +28°C° 0 mm 4 mps 745 mmHg 61%
18:00 +27°C° 0 mm 3 mps 745 mmHg 68%
19:00 +25°C° 0 mm 3 mps 745 mmHg 74%
20:00 +24°C° 0 mm 3 mps 745 mmHg 81%
21:00 +22°C° 0 mm 3 mps 745 mmHg 84%
22:00 +21°C° 0 mm 3 mps 745 mmHg 87%
23:00 +20°C° 0 mm 3 mps 745 mmHg 90%

Day after tomorrow, 22 June, Tuesday

Time Temperature Precipitation Wind Pressure Humidity
00:00 +20°C° 0 mm 3 mps 745 mmHg 92%
01:00 +20°C° 0 mm 3 mps 745 mmHg 93%
02:00 +19°C° 0 mm 3 mps 745 mmHg 95%
03:00 +19°C° 0 mm 3 mps 745 mmHg 94%
04:00 +20°C° 0 mm 3 mps 745 mmHg 94%
05:00 +20°C° 0 mm 3 mps 745 mmHg 93%
06:00 +21°C° 0 mm 3 mps 745 mmHg 86%
07:00 +23°C° 0 mm 4 mps 745 mmHg 79%
08:00 +26°C° 0 mm 4 mps 745 mmHg 72%
09:00 +27°C° 0 mm 5 mps 745 mmHg 66%
10:00 +28°C° 0 mm 5 mps 745 mmHg 61%
11:00 +30°C° 0 mm 5 mps 745 mmHg 56%
12:00 +30°C° 0 mm 5 mps 745 mmHg 54%
13:00 +32°C° 0 mm 5 mps 745 mmHg 53%
14:00 +32°C° 0 mm 5 mps 745 mmHg 52%
15:00 +32°C° 0 mm 5 mps 745 mmHg 54%
16:00 +32°C° 0 mm 4 mps 745 mmHg 57%
17:00 +30°C° 0 mm 4 mps 745 mmHg 60%
18:00 +29°C° 0 mm 3 mps 745 mmHg 68%
19:00 +27°C° 0 mm 3 mps 745 mmHg 75%
20:00 +25°C° 0 mm 3 mps 745 mmHg 83%
21:00 +24°C° 0 mm 3 mps 745 mmHg 85%
22:00 +22°C° 0 mm 3 mps 745 mmHg 87%
23:00 +21°C° 0 mm 3 mps 745 mmHg 89%

23 June, Wednesday

Time Temperature Precipitation Wind Pressure Humidity
00:00 +21°C° 0 mm 3 mps 745 mmHg 91%
01:00 +20°C° 0 mm 3 mps 745 mmHg 93%
02:00 +19°C° 0 mm 3 mps 745 mmHg 94%
03:00 +19°C° 0 mm 2 mps 746 mmHg 94%
04:00 +20°C° 0 mm 2 mps 746 mmHg 93%
05:00 +20°C° 0 mm 2 mps 746 mmHg 92%
06:00 +22°C° 0 mm 3 mps 746 mmHg 85%
07:00 +25°C° 0 mm 3 mps 746 mmHg 78%
08:00 +27°C° 0 mm 3 mps 746 mmHg 71%
09:00 +28°C° 0 mm 4 mps 746 mmHg 65%
10:00 +29°C° 0 mm 4 mps 746 mmHg 60%
11:00 +32°C° 0 mm 4 mps 746 mmHg 55%
12:00 +32°C° 0 mm 4 mps 746 mmHg 53%
13:00 +33°C° 0 mm 4 mps 746 mmHg 52%
14:00 +33°C° 0 mm 4 mps 746 mmHg 51%
15:00 +33°C° 0 mm 4 mps 746 mmHg 53%
16:00 +33°C° 0 mm 4 mps 746 mmHg 56%
17:00 +33°C° 0 mm 3 mps 746 mmHg 59%
18:00 +30°C° 0 mm 3 mps 746 mmHg 65%
19:00 +28°C° 0 mm 2 mps 746 mmHg 72%
20:00 +27°C° 0 mm 2 mps 746 mmHg 78%
21:00 +26°C° 0 mm 2 mps 746 mmHg 80%
22:00 +25°C° 0 mm 2 mps 746 mmHg 81%
23:00 +24°C° 0 mm 2 mps 746 mmHg 82%

24 June, Thursday

Time Temperature Precipitation Wind Pressure Humidity
00:00 +23°C° 0.1 mm 2 mps 746 mmHg 85%
01:00 +23°C° 0.1 mm 2 mps 746 mmHg 88%
02:00 +21°C° 0.1 mm 2 mps 746 mmHg 91%
03:00 +23°C° 0 mm 2 mps 746 mmHg 91%
04:00 +23°C° 0 mm 2 mps 746 mmHg 92%
05:00 +23°C° 0 mm 2 mps 746 mmHg 92%
06:00 +25°C° 0 mm 2 mps 747 mmHg 85%
07:00 +26°C° 0 mm 2 mps 747 mmHg 77%
08:00 +28°C° 0 mm 3 mps 747 mmHg 70%
09:00 +29°C° 0 mm 3 mps 747 mmHg 64%
10:00 +30°C° 0 mm 3 mps 747 mmHg 57%
11:00 +33°C° 0 mm 4 mps 747 mmHg 51%
12:00 +33°C° 0 mm 4 mps 747 mmHg 51%
13:00 +33°C° 0 mm 4 mps 747 mmHg 50%
14:00 +34°C° 0 mm 4 mps 747 mmHg 50%
15:00 +33°C° 0 mm 4 mps 747 mmHg 53%
16:00 +33°C° 0 mm 4 mps 746 mmHg 56%
17:00 +33°C° 0 mm 3 mps 746 mmHg 59%
18:00 +30°C° 0.1 mm 3 mps 746 mmHg 66%
19:00 +28°C° 0.1 mm 3 mps 746 mmHg 73%
20:00 +27°C° 0.1 mm 2 mps 745 mmHg 80%
21:00 +25°C° 0.1 mm 2 mps 746 mmHg 83%
22:00 +24°C° 0.1 mm 1 mps 746 mmHg 86%
23:00 +23°C° 0.1 mm 1 mps 746 mmHg 88%

25 June, Friday

Time Temperature Precipitation Wind Pressure Humidity
00:00 +22°C° 0.1 mm 1 mps 746 mmHg 90%
01:00 +21°C° 0.1 mm 2 mps 746 mmHg 91%
02:00 +21°C° 0.1 mm 2 mps 745 mmHg 92%
03:00 +21°C° 0.2 mm 2 mps 745 mmHg 92%
04:00 +21°C° 0.2 mm 2 mps 745 mmHg 93%
05:00 +21°C° 0.2 mm 2 mps 745 mmHg 93%
06:00 +24°C° 0 mm 3 mps 745 mmHg 86%
07:00 +26°C° 0 mm 3 mps 745 mmHg 80%
08:00 +27°C° 0 mm 3 mps 746 mmHg 74%
09:00 +29°C° 0 mm 4 mps 746 mmHg 68%
10:00 +30°C° 0 mm 4 mps 746 mmHg 63%
11:00 +32°C° 0 mm 4 mps 746 mmHg 58%
12:00 +33°C° 0 mm 4 mps 745 mmHg 54%
13:00 +33°C° 0 mm 4 mps 745 mmHg 51%
14:00 +34°C° 0 mm 4 mps 745 mmHg 48%
15:00 +33°C° 0 mm 4 mps 745 mmHg 51%
16:00 +33°C° 0 mm 4 mps 744 mmHg 55%
17:00 +32°C° 0 mm 4 mps 744 mmHg 59%
18:00 +30°C° 0.1 mm 3 mps 744 mmHg 66%
19:00 +28°C° 0.1 mm 2 mps 743 mmHg 73%
20:00 +26°C° 0.1 mm 2 mps 743 mmHg 80%
21:00 +26°C° 0.1 mm 2 mps 743 mmHg 81%
22:00 +25°C° 0.1 mm 3 mps 744 mmHg 83%
23:00 +24°C° 0.1 mm 3 mps 744 mmHg 84%
Show more